Regional Weather Roundup
Issued by NWS

Home | Current Version | Previous Version | Graphics & Text | Print | Product List | Glossary On
Versions: 1 2 3 4 5 6 7 8 9 10 11 12 13 14 15 16 17 18 19 20 21 22 23 24 25 26 27 28 29 30 31 32 33 34 35 36 37 38 39 40 41 42 43 44 45 46 47 48 49 50
000
ASUS43 KFSD 021510
RWRSD

WEATHER ROUNDUP FOR SOUTH DAKOTA
NATIONAL WEATHER SERVICE SIOUX FALLS SD
1000 AM CDT SUN AUG 02 2015

NOTE: "FAIR" INDICATES FEW OR NO CLOUDS BELOW 12,000 FEET WITH NO
SIGNIFICANT WEATHER AND/OR OBSTRUCTIONS TO VISIBILITY.


SDZ001>005-009-010-012>017-021600-
NORTHWEST AND NORTH CENTRAL SOUTH DAKOTA

CITY           SKY/WX    TMP DP  RH WIND       PRES   REMARKS
BUFFALO          N/A     71  50  47 NE14      29.95R
FAITH            N/A     72  50  45 N21       29.94R
MOBRIDGE       SUNNY     74  59  59 N9        29.89R
$$

SDZ012>016-024>037-041>051-057-063-072>074-021600-
SOUTHWEST AND SOUTH CENTRAL SOUTH DAKOTA

CITY           SKY/WX    TMP DP  RH WIND       PRES   REMARKS
RAPID CTY ARPT SUNNY     72  51  47 N10       30.00R
PIERRE         SUNNY     74  60  61 N15       29.86R
CUSTER         SUNNY     77  51  40 NW3       30.12R
PHILIP         SUNNY     75  58  55 NE10      29.92R
PINE RIDGE     SUNNY     76  62  62 NW5       29.98R
WINNER         FAIR      80  61  52 NW13      29.87R
$$

SDZ004>011-016>023-039-040-021600-
NORTHEAST SOUTH DAKOTA

CITY           SKY/WX    TMP DP  RH WIND       PRES   REMARKS
ABERDEEN       SUNNY     74  60  61 N20       29.83R
WATERTOWN      SUNNY     75  65  70 N18       29.79R
BROOKINGS      SUNNY     75  61  60 NW17      29.79R
SISSETON         N/A     74  62  66 N17G28    29.77R
$$

SDZ017-020-022-023-036>040-048>070-021600-
SOUTHEAST SOUTH DAKOTA

CITY           SKY/WX    TMP DP  RH WIND       PRES   REMARKS
SIOUX FALLS    MOSUNNY   76  66  71 VRB6      29.78R
HURON          SUNNY     74  62  66 N15       29.80R
CHAMBERLAIN    SUNNY     75  64  67 NW6       29.84R
MITCHELL       SUNNY     78  65  63 NW10      29.80R
YANKTON        SUNNY     77  64  65 SW7       29.78F
$$

ABBREVIATIONS USED IN REMARKS
   TC - TEMPERATURE IN CELSIUS
  WCI - WIND CHILL INDEX
   HX - HEAT INDEX
  VSB - VISIBILITY



USA.gov is the U.S. government's official web portal to all federal, state and local government web resources and services.